Regional Weather Roundup
Issued by NWS

Home | Current Version | Previous Version | Graphics & Text | Print | Product List | Glossary On
Versions: 1 2 3 4 5 6 7 8 9 10 11 12 13 14 15 16 17 18 19 20 21 22 23 24 25 26 27 28 29 30 31 32 33 34 35 36 37 38 39 40 41 42 43 44 45 46 47 48 49 50
906
ASUS44 KJAN 191903
RWRMS

MISSISSIPPI HOURLY WEATHER ROUNDUP
NATIONAL WEATHER SERVICE JACKSON MS
200 PM CDT SUN APR 19 2015

NOTE: "FAIR: INDICATES FEW OR NO CLOUDS BELOW 12,000 FEET WITH NO
SIGNIFICANT WEATHER AND/OR OBSTRUCTIONS TO VISIBILITY.

MSZ001>002-007>008-010>013-018>021-025>028-034>036-192000-
NORTHWEST MISSISSIPPI

CITY           SKY/WX    TMP DP  RH WIND       PRES   REMARKS
CLARKSDALE     PTSUNNY   73  66  78 SW16      29.70F
CLEVELAND      FAIR      74  66  74 W9        29.71F
GREENWOOD      MOSUNNY   76  61  59 W10G20    29.71F
GREENVILLE     SUNNY     76  60  57 SW13      29.71F
OLIVE BRANCH   PTSUNNY   70  68  94 SW12G17   29.66F
OXFORD         PTSUNNY   68  64  88 W12G17    29.70S
TUNICA         MOCLDY    72  64  78 W14       29.68F
$$

MSZ003>006-009-014>017-022>024-029>033-037>039-192000-
NORTHEAST MISSISSIPPI

CITY           SKY/WX    TMP DP  RH WIND       PRES   REMARKS
COLUMBUS AFB   PTSUNNY   75  62  64 SW16G22   29.68S
CORINTH        RAIN      66  64  94 VRB6G14   29.65R
GOLDN TRIANGLE PTSUNNY   70  61  73 W10G33    29.71R
STARKVILLE     CLOUDY    72  63  73 W8        29.71S
TUPELO         CLOUDY    68  64  87 W9        29.68R
$$

MSZ040-058-192000-
CENTRAL MISSISSIPPI

CITY           SKY/WX    TMP DP  RH WIND       PRES   REMARKS
JACKSON INTL   MOSUNNY   78  61  55 W14G21    29.76F
JACKSON HAWKNS MOSUNNY   76  61  59 SW15G21   29.77F
MERIDIAN KEY   MOSUNNY   80  57  45 W14G25    29.74F
MERIDIAN NAS   PTSUNNY   80  59  48 W15G24    29.73F
RAYMOND        FAIR      77  72  83 W9G16     29.77F
VICKSBURG      SUNNY     77  61  57 VRB5      29.77F
$$

MSZ059>079-192000-
SOUTH MISSISSIPPI

CITY           SKY/WX    TMP DP  RH WIND       PRES   REMARKS
BROOKHAVEN     FAIR     N/A N/A N/A W12G17    29.80F
HATTIESBURG    SUNNY     84  56  38 W12       29.78F
MCCOMB         SUNNY     81  57  43 W12       29.80F
NATCHEZ        SUNNY     75  63  64 W8G17     29.80F
PINE BELT      MOSUNNY   82  57  42 W8        29.78F
$$

MSZ080>082-192000-
COASTAL MISSISSIPPI

CITY           SKY/WX    TMP DP  RH WIND       PRES   REMARKS
BAY ST LOUIS   MOSUNNY   82  57  42 MISG      29.79F
BILOXI         SUNNY     79  71  75 SW17      29.79F
PASCAGOULA     MOSUNNY   79  69  71 S12       29.80F
GULFPORT       MOSUNNY   80  69  69 S9G17     29.79F
$$



USA.gov is the U.S. government's official web portal to all federal, state and local government web resources and services.